星链-37409(STARLINK-37409)

导读

STARLINK-37409(NORAD编号68819)是美国SpaceX公司星链(Starlink)低轨卫星互联网星座的成员卫星。星链项目旨在通过部署大规模低轨道卫星,为全球提供高速低延迟互联网服务,重点覆盖地面基础设施难以到达的偏远地区、海洋和空域。 该卫星运行在近地轨道,属于星链星座第二阶段组网卫星,承担卫星互联网通信中继任务,助力星座扩展全球网络覆盖范围,支持个人消费、商业及特种应用场景。作为SpaceX批量生产发射的标准化小卫星,它延续了星链卫星的设计,配备可展开太阳能帆板与星间链路设备,保障在轨稳定运行,服务全球用户的宽带接入需求。

Basic Information
目录编号:
68819
目录名称:
STARLINK-37409
国际标识:
2026-089T
轨道中心:
EARTH
卫星名称:
星链-37409
卫星全名:
星链-37409(STARLINK-37409)
卫星状态:
在轨 (已飞行134 天)
发射日期:
2026-04-23 UTC
国别 :
美国 (US)
星等 :
--
Orbit Information
数据来源 国际轨道数据 AOE轨道数据
星历时间 2026-09-03T11:51:34+0800
23小时前
查看轨道信息
2026-09-03T23:00:00+0800
12小时前
查看轨道信息
半长轴 6843.723km 6843.739km
偏心率 0.0001795 0.0002059
轨道倾角 97.285° 97.288°
近地点辐角 76.579° 94.565°
升交点赤经 92.197° 92.656°
平近点角 283.566° 306.407°
近地点 464.357km 464.192km
远地点 466.815km 467.012km
周期 93.907分钟 93.907分钟
每日圈数 15.334307 15.334253
Detailed Information
固有亮度:
5
最大亮度:
2.5
卫星平台:
Starlink V1.0
覆盖范围:
全球
运营商:
太空探索技术公司
运营商所在国:
美国
制造商(研发单位):
太空探索技术公司
制造商所在国:
美国
使用方式:
暂无
Satellite Introduction
Starlink 计划是 SpaceX 推出的全球卫星互联网项目,通过发射低轨道卫星,为全球尤其是偏远地区提供高速、低延迟的互联网服务。自 2019 年起,Starlink 已部署数千颗卫星,旨在缩小全球数字鸿沟,推动互联网普及。该项目还为军事、航空等行业提供通信支持,带来广泛经济效益。
2D Orbit Map
3D Orbit Map
Orbit Altitude Analysis Chart
Orbit Inclination Analysis Chart
Orbit Comprehensive Analysis Chart
View Comprehensive Chart
Conjunction Data List
Event ID Objects TCA Miss Dist (km) Collision Risk Probability Collision Risk Index (CRI) Action
CDM_260901-223004-284006-881923
2026-09-01T
22:30:08+0000
0.707 km
远距离
3.256968E-5 中风险 0.65
CDM_260901-234504-735406-881923
2026-09-01T
23:45:07+0000
1.404 km
极远距离
8.313641E-6 低风险 0.53
CDM_260831-024906-606406-881921
2026-08-31T
02:49:11+0000
1.756 km
极远距离
3.040443E-6 低风险 0.45
CDM_260901-225804-735406-881922
2026-09-01T
22:58:08+0000
2.520 km
极远距离
1.722997E-6 低风险 0.4